strmgageid,date_time,avg_discharge,stddev_discharge,min_discharge,max_discharge,n_discharge,tdaily_discharge,avg_temp,stddev_temp,min_temp,max_temp,n_temp
priscu_b1,12/6/93,0.5,0.5,0.06,2.01,19,8901,1.6,1.3,0,3.6,19
priscu_b1,12/7/93,0.8,0.6,0.03,2.15,55,38592,3.5,2.8,0,8.3,55
priscu_b1,12/8/93,1,1,0.03,2.12,6,5427,0.8,0.2,0.7,1.1,6
priscu_b1,12/9/93,2.5,1.6,0.96,6.14,27,59580,2,2,0.1,6,27
priscu_b1,12/10/93,2.7,2.4,0.03,9.43,58,140625,3.2,2.7,0,7.8,58
priscu_b1,12/11/93,2.3,2.9,0.03,9.8,69,143586,1.4,1.1,0.1,3.3,69
priscu_b1,12/12/93,4.1,3.2,0.06,8.24,59,220176,2.9,2.6,0,6.7,59
priscu_b1,12/13/93,3.2,5.1,0.08,17.61,96,275661,2.1,1.3,0.1,4.9,96
priscu_b1,12/14/93,4.4,3.1,0.06,9.54,59,231057,2.8,1.6,0.6,6.5,59
priscu_b1,12/15/93,9.5,7.4,0.2,22.09,96,819405,4.3,3.2,0,8.9,96
priscu_b1,12/16/93,8.6,8,0.42,22,96,739665,3,2.2,0,7.1,96
priscu_b1,12/17/93,14.8,13.2,0.45,37.1,96,1277469,3.3,2.8,0.1,8.4,96
priscu_b1,12/18/93,4.2,4,0.82,17.13,96,363465,1.5,1.2,0,3.8,96
priscu_b1,12/19/93,5,3.3,0.68,11.84,96,430200,5.5,3.6,0.3,11,96
priscu_b1,12/20/93,3,1.3,1.42,6.23,96,262935,3.7,2.3,0.1,7.9,96
priscu_b1,12/21/93,1.8,2.8,0.08,8.5,89,147897,1,0.8,0,2.9,89
priscu_b1,12/22/93,1.4,0.8,0.65,3.34,17,21825,1.7,0.5,0.9,2.3,17
priscu_b1,12/23/93,2.2,2.7,0.03,8.38,70,141183,5.2,2.1,1.6,9.8,70
priscu_b1,12/24/93,4,3.8,0.48,10.7,96,349884,5.4,3.2,0.4,10.3,96
priscu_b1,12/25/93,9.9,8.9,0.71,27.07,96,854001,4.9,3.5,0,10.4,96
priscu_b1,12/26/93,8,6.9,0.54,20.59,96,688833,4.8,3.6,0,10.4,96
priscu_b1,12/27/93,6.9,5.5,0.71,15.01,96,594405,4.7,3.2,0,9.2,96
priscu_b1,12/28/93,3.2,2.4,0.45,7.82,96,276354,2.7,2.3,0,7.1,96
priscu_b1,12/29/93,1.5,1.2,0.25,3.96,96,129744,4.5,2,1,7.4,96
priscu_b1,12/30/93,8.1,8.5,0.03,25.8,96,700506,4.8,2.9,0.1,9.2,96
priscu_b1,12/31/93,14.3,12.8,0.45,38.26,96,1233045,4.6,3.5,0,10.4,96
priscu_b1,1/1/94,23.9,20.1,0.79,56.29,96,2066130,4.9,4.1,0,12.4,96
priscu_b1,1/2/94,38.2,25.5,2.75,70.65,96,3300597,5.7,3.9,0.1,11.2,96
priscu_b1,1/3/94,35.8,20.1,2.15,72.66,96,3093012,4.1,2.7,0.3,7.5,96
priscu_b1,1/4/94,28.9,15.7,4.93,54.2,96,2493234,5.3,3.6,0.5,10.1,96
priscu_b1,1/5/94,49.3,30.2,3.11,85.23,96,4261680,5.4,3.7,0.9,10.3,96
priscu_b1,1/6/94,65.5,28.3,9.54,102.45,96,5661360,5,2.7,1.5,9,96
priscu_b1,1/7/94,47.6,24.7,5.21,90.16,96,4115484,5.3,2.7,1.3,9.6,96
priscu_b1,1/8/94,30.5,17.8,4.87,63.97,96,2635209,5.1,2.3,2.1,9.1,96
priscu_b1,1/9/94,20.4,6.4,10.11,34.07,96,1765836,5.2,2.9,1.1,8.7,96
priscu_b1,1/10/94,33.8,24.4,0.54,70.25,96,2920041,5.9,3.6,1.7,11.1,96
priscu_b1,1/11/94,28.2,18.8,4.33,65.02,96,2433474,5.2,2.2,2.2,8.5,96
priscu_b1,1/12/94,25.9,19.9,1.5,61.76,96,2238462,5.9,3.4,1.6,10.7,96
priscu_b1,1/13/94,11.4,6.5,2.92,28.43,96,982773,5.2,2.6,2.1,9.1,96
priscu_b1,1/14/94,5.1,2.3,1.73,10.34,96,439263,3.9,1.1,2.3,6.2,96
priscu_b1,1/15/94,2.4,1,1.1,4.79,96,204480,4,0.9,2.7,5.3,96
priscu_b1,1/16/94,3.4,1.9,0.93,8.58,96,293931,3.6,0.9,2.5,4.9,96
priscu_b1,1/17/94,2.3,1.8,0.45,9.6,96,202248,4.2,1.6,2.3,6.9,96
priscu_b1,1/18/94,32.3,24.7,2.35,73.17,96,2791773,6.5,3.1,2.8,11.2,96
priscu_b1,1/19/94,38.2,19.7,12.74,73.68,96,3304404,4.3,1.6,2.1,7.6,96
priscu_b1,1/20/94,10.6,3,4.56,16.42,96,919584,1.7,1,0.4,4.3,96
priscu_b1,1/21/94,5.2,2.1,2.61,11.19,96,452070,2.7,2.3,0.5,8.6,96
priscu_b1,1/22/94,3.6,1.6,1.22,7.11,96,310563,1.6,0.7,0.7,4,96
priscu_b1,1/23/94,6.5,3.1,3.77,16.06,96,564903,3.6,2.6,0.1,8.6,96
priscu_b1,1/24/94,3.6,1.6,1.02,6.54,96,312444,2.7,1.5,0.7,6.2,96
priscu_b1,1/25/94,4.2,0.8,1.22,6.09,96,363276,2.6,1.6,0.4,7,96
priscu_b1,1/26/94,3,1.5,0.57,5.78,96,256293,2.3,1.6,0,5.3,96
priscu_b1,1/27/94,4.9,5.8,0.42,22.14,96,423855,4.4,1.7,2,6.8,96
priscu_b1,1/28/94,4.6,1,1.27,7.76,96,395136,3.5,0.9,2.4,6.1,96
priscu_b1,1/29/94,4.3,0.8,3.34,8.04,96,371943,2.7,0.6,1.8,3.5,96
priscu_b1,1/30/94,4.3,1.2,2.63,7.05,96,371052,2.6,0.7,1.8,3.8,96
priscu_b1,1/31/94,4.2,1.1,2.01,6.06,96,358902,2.7,0.6,1.8,4.4,96
priscu_b1,2/1/94,6.3,0.9,3.37,8.13,96,541908,2.9,0.3,2.2,3.2,96
priscu_b1,2/2/94,7.4,1.2,4.25,9.09,96,641601,2.6,0.4,2.1,3.1,96
priscu_b1,2/3/94,5.8,1.1,3.79,7.36,96,500445,2.6,0.4,2,3.1,96
priscu_b1,2/4/94,4.9,0.8,3.34,6.51,96,425340,2.6,0.6,1.7,3.5,96
priscu_b1,2/5/94,3.9,0.8,2.38,6.06,96,337041,2,0.4,1.8,3,40
priscu_b1,2/6/94,3.2,0.6,1.84,5.27,96,272556,,,,,0
priscu_b1,2/7/94,2.7,0.6,1.59,4.22,96,236142,,,,,0
priscu_b1,2/8/94,1.5,0.6,0.34,2.35,88,118089,,,,,0
priscu_b1,12/11/94,20.7,6.2,6.91,34.29,46,857592,6.1,2.1,0.9,8.3,46
priscu_b1,12/12/94,15.4,8.7,2.63,36.22,96,1329885,3.8,3.7,0,9.4,96
priscu_b1,12/13/94,27.4,17.5,3.14,55.47,96,2370762,2.9,2.4,0,7.9,96
priscu_b1,12/14/94,7.7,6,2.32,28.74,96,664479,2.4,2.5,0,6.5,96
priscu_b1,12/15/94,5.4,2.8,1.64,11.61,96,468162,3.4,3,0,9.9,96
priscu_b1,12/16/94,4.3,2.2,1.42,10.62,96,368901,2.8,2.1,0,7.5,96
priscu_b1,12/17/94,1.4,1,0.59,6.71,96,116892,1.8,1.9,0,5.7,96
priscu_b1,12/18/94,0.6,,0.59,0.59,1,531,0,,0,0,1
priscu_b1,12/19/94,11.6,3.3,3.77,16.74,45,470070,7.5,2.7,1.7,10,45
priscu_b1,12/20/94,8.3,6.9,0.54,22.54,96,713673,3.4,3.2,0,8.4,96
priscu_b1,12/21/94,2.5,1.4,0.76,6.4,96,215217,1,1.3,0,3.7,96
priscu_b1,12/22/94,0.9,0.2,0.54,1.42,56,44028,0.8,1.8,0,5.8,56
priscu_b1,12/24/94,2.1,0.4,1.16,2.8,23,43884,1.9,0.8,0,2.8,23
priscu_b1,12/25/94,2.4,1.7,0.34,5.8,54,116604,2.2,2.6,0,8.3,54
priscu_b1,12/26/94,4.9,2.3,0.4,8.98,31,137853,3.8,2.4,0,8.1,31
priscu_b1,12/27/94,4.6,4.8,0.28,14.13,96,399618,3.2,3.3,0,9.6,96
priscu_b1,12/28/94,4.8,5.7,0.48,21.89,96,412056,2,2.1,0.1,8,96
priscu_b1,12/29/94,5.1,5.1,0.11,13.51,74,342252,3,3,0.1,8.3,74
priscu_b1,12/30/94,19,13.4,1.59,44,96,1645641,4.6,3.9,0.1,11.6,96
priscu_b1,12/31/94,6.5,7.8,1.02,38.94,96,561204,1.2,1.1,0,3.8,96
priscu_b1,1/1/95,22.1,18.5,1.5,50.09,96,1913076,4.6,4.4,0,10.5,96
priscu_b1,1/2/95,36.3,14.9,7.08,53.66,96,3134322,4.8,3.2,0.2,9.5,96
priscu_b1,1/3/95,9.7,5.8,2.38,39.36,96,836775,0.6,0.8,0,2.9,96
priscu_b1,1/4/95,11.4,2.2,4.25,18.41,96,989262,0.7,1.1,0,3.4,96
priscu_b1,1/5/95,11.1,2.9,3.51,18.6,96,954738,1.5,0.9,0.1,3.2,96
priscu_b1,1/6/95,8.6,2.9,3.79,20.16,96,741447,1,0.5,0.2,1.9,96
priscu_b1,1/7/95,9.2,4.5,3.54,20.22,96,793494,3.1,3.5,0,9.8,96
priscu_b1,1/8/95,24.4,17.2,2.18,48.76,96,2112165,5,3.2,0.4,9.6,96
priscu_b1,1/9/95,37.4,15.5,5.41,56.29,96,3233142,4.1,3.1,0,8.9,96
priscu_b1,1/10/95,32.1,18.7,3.45,53.66,96,2772864,3.5,3.2,0,8.8,96
priscu_b1,1/11/95,23.5,8.4,8.72,37.01,96,2033757,3.4,2.8,0,8.8,96
priscu_b1,1/12/95,11.6,5.9,3.37,38.14,96,1004220,1.5,1.9,0,6.1,96
priscu_b1,1/13/95,6.8,1.7,3.71,14.3,96,587106,0.9,0.9,0,2.5,96
priscu_b1,1/14/95,6.6,1.4,4.11,13.25,96,573129,1.3,1.4,0,4,96
priscu_b1,1/15/95,7.9,4.3,2.78,16.4,96,686079,2.3,2,0.1,7.3,96
priscu_b1,1/16/95,4.3,2.3,1.44,14.24,96,373293,2,1.8,0,5.6,96
priscu_b1,1/17/95,4,4.4,0.2,17.33,96,348147,2.3,2.2,0,6.4,96
priscu_b1,1/18/95,4.5,3.1,0.68,14.89,96,387396,1.3,1.6,0,4.5,96
priscu_b1,1/19/95,1.5,0.7,0.59,3.51,96,133254,0.6,0.8,0,2.8,96
priscu_b1,1/20/95,2.7,2.6,0,12.6,74,176715,2.6,2.5,0,8,74
priscu_b1,1/21/95,7.4,5.7,0.45,31.63,96,639900,2.5,2.9,0,7.7,96
priscu_b1,1/22/95,10.1,5.5,1.78,29.11,96,872874,1.9,2.3,0,7.1,96
priscu_b1,1/23/95,4.7,4.2,0.76,15.91,96,407259,1.4,1.8,0,5.4,96
priscu_b1,1/24/95,3.5,1.8,0.93,11.36,96,301806,0.7,1.3,0,4.7,96
priscu_b1,1/25/95,4.8,4.9,0.37,23.28,96,413100,2,2.6,0,6.4,96
priscu_b1,1/26/95,5.5,8.5,1.1,41.65,96,478161,0.8,1.1,0,2.9,96
priscu_b1,1/27/95,5.5,7.5,0,47.43,96,472554,1.1,1.4,0,4.2,96
priscu_b1,1/28/95,6.7,4.2,1.16,14.95,24,145593,0,0,0,0,24
priscu_b1,1/29/95,3.2,2.9,1.27,14.95,43,124425,0,0,0,0,43
priscu_b1,1/30/95,9.1,10.4,0,46.84,96,784008,0.8,1.6,0,5.1,96
priscu_b1,1/31/95,5.2,3.1,0,11.78,96,447066,1.3,1.8,0,5.1,96
priscu_b1,2/1/95,1,0.5,0.54,2.1,17,15354,0,0,0,0,17
priscu_b1,2/3/95,9.9,1.7,6.85,13.85,35,310752,2.4,2,0,4.6,35
priscu_b1,2/4/95,7.8,5.4,1.93,25.71,96,674055,0.9,1.3,0,3.9,96
priscu_b1,2/5/95,0.7,2.9,0,15.01,94,63135,0,0,0,0,94
priscu_b1,11/25/95,5.5,1.7,0.2,7.99,16,79299,1.7,1,0.2,3.3,13
priscu_b1,11/26/95,4.9,3.9,0.03,16.79,96,423117,0.8,1.2,0,4.5,96
priscu_b1,11/27/95,4.5,3.7,0.31,15.06,96,389592,0.9,1.5,0,5.6,96
priscu_b1,11/28/95,1.5,1.3,0.11,7.99,96,132552,2,2.7,0,7.8,96
priscu_b1,11/29/95,5.7,3.1,1.25,13.42,96,492471,1.6,1.7,0.2,6.5,96
priscu_b1,11/30/95,3.9,1.7,1.25,7.56,96,334701,2.2,2.4,0.2,6.6,96
priscu_b1,12/1/95,3.7,1.9,1.02,6.71,96,319320,2.4,2.6,0,7,91
priscu_b1,12/2/95,8.4,7.5,0.51,22.4,96,724410,3.3,3.3,0.2,8.5,91
priscu_b1,12/3/95,16.9,9.8,1.67,29.34,74,1128240,2.7,3,0.2,8.2,95
priscu_b1,12/4/95,8,3.8,1.67,17.98,96,688608,2,2.6,0.2,7.3,96
priscu_b1,12/5/95,5.7,2.5,2.46,14.5,96,493875,0.5,0.7,0,2.6,96
priscu_b1,12/6/95,4.4,2,0.2,11.84,96,384327,0.5,0.8,0,3.6,96
priscu_b1,12/7/95,3.9,1.8,1.93,12.35,96,333666,0.8,1.2,0,4.6,96
priscu_b1,12/8/95,6.1,4.3,1.67,15.06,96,525537,1.4,1.7,0,6,96
priscu_b1,12/9/95,12.1,8.4,1.44,27.89,96,1046448,3.5,3.2,0,8.7,95
priscu_b1,12/10/95,15.1,8.7,4.39,31.55,96,1306566,3.1,2.3,0.2,7.1,96
priscu_b1,12/11/95,16.9,14,3.71,46.92,96,1460952,4.3,3.1,0.3,12.8,96
priscu_b1,12/12/95,26.4,8.9,13.96,42.65,96,2277891,3.6,2.7,0.3,8.4,95
priscu_b1,12/13/95,18.2,4.6,10.34,26.48,96,1571184,4.7,3.4,0.2,11.3,96
priscu_b1,12/14/95,8.6,2.8,3.06,16.23,96,744174,3.9,2.3,0.7,7.4,96
priscu_b1,12/15/95,21.1,17.2,2.78,49.95,96,1826262,4.2,3.3,0.2,9.8,96
priscu_b1,12/16/95,16.1,3.9,7.56,25.09,96,1390689,4.3,3.4,0.2,9.7,96
priscu_b1,12/17/95,15.2,5.2,7.11,25.09,96,1310553,3,2.8,0.2,9,96
priscu_b1,12/18/95,6.8,2.5,2.46,14.5,96,587880,2.7,2.8,0.2,8.5,96
priscu_b1,12/19/95,7.4,5.2,1.25,18.6,96,640107,3.9,3.5,0.3,9.9,96
priscu_b1,12/20/95,14.3,12,1.44,36.13,96,1233783,4.7,3.8,0.2,11.3,96
priscu_b1,12/21/95,28.3,20.7,2.46,59.69,96,2441754,5.1,3.5,0.2,11.4,96
priscu_b1,12/22/95,18,9.7,5.13,43.49,96,1552734,3.9,2.5,0.5,9.3,96
priscu_b1,12/23/95,64.5,46.5,12.88,144.92,96,5574384,5.8,3.1,1.7,10.9,96
priscu_b1,12/24/95,116.2,30.9,51.54,160.25,96,10040589,4.5,2.2,0.8,9.3,96
priscu_b1,12/25/95,38.2,10.4,21.1,65.41,96,3303054,3.4,1.6,1.2,6.2,96
priscu_b1,12/26/95,11.1,2.7,7.56,19.23,96,957348,2.9,1.9,0.3,6.7,96
priscu_b1,12/27/95,24.3,16.9,4.39,55.1,96,2100906,3.8,2,0.9,7.8,96
priscu_b1,12/28/95,25,12,8.44,49.75,96,2161575,4,2.8,0.4,10.7,89
priscu_b1,12/29/95,20.6,9.7,6.29,49.95,96,1777725,3.4,2.4,0.2,9.1,96
priscu_b1,12/30/95,11.1,4.4,4.76,21.75,96,959274,2.8,2.2,0.3,7,96
priscu_b1,12/31/95,8.3,3.9,3.06,19.23,96,716643,2.9,1.9,0.2,7.4,96
priscu_b1,1/1/96,4.9,2.5,1.44,11.84,96,422244,2.7,1.9,0.5,6.7,96
priscu_b1,1/2/96,2.4,2,1.25,9.83,44,95859,1.6,0.9,0.5,2.9,96
priscu_b1,1/3/96,3.1,4.5,0.2,25.77,87,239652,1.3,0.9,0.4,3,96
priscu_b1,1/4/96,2.3,1,0.2,3.71,47,96525,1,0.6,0.3,2.1,50
priscu_b1,1/5/96,2.4,2.8,0.2,8.89,37,81099,0.3,0,0.2,0.3,43
priscu_b1,1/6/96,0.8,0.2,0.2,1.02,11,7947,0.2,0,0.2,0.2,11
priscu_b1,1/8/96,4.3,2.3,2.21,11.33,15,58401,0.3,0.2,0.2,0.9,15
priscu_b1,1/9/96,2.8,3.3,0.31,14.5,73,184671,1,0.4,0.4,2,73
priscu_b1,1/10/96,9.9,9.3,0.2,24.41,70,622719,3.8,3.5,0.3,11.4,70
priscu_b1,1/11/96,31,20.9,3.71,67.37,96,2675358,5.4,3.9,0.2,10.9,96
priscu_b1,1/12/96,13.8,8,3.06,39.36,96,1190151,3.3,2.7,0,8.7,96
priscu_b1,1/13/96,4.3,2.4,1.25,11.84,96,370899,2.6,1.8,0.4,7,96
priscu_b1,1/14/96,4.8,3.1,1.44,13.96,96,416178,2.7,2.3,0.2,6.2,96
priscu_b1,1/15/96,6.4,4.8,1.44,27.18,96,549036,2.7,2.2,0.2,8.8,96
priscu_b1,1/16/96,1.6,2.1,0.11,14.5,96,135936,2.3,2.6,0.3,9.2,95
priscu_b1,1/17/96,6.2,10.2,0,50.18,96,533664,2.2,2.4,0.2,8.7,96
priscu_b1,1/18/96,3,2.8,0,8.44,61,166914,3.2,2.3,0.2,8.7,61
priscu_b1,1/19/96,1.4,0.9,0.51,4.76,96,120141,1.2,1.1,0.3,3.8,96
priscu_b1,1/20/96,4.7,2.9,0,13.42,96,405738,1.6,1.7,0.2,6.5,96
priscu_b1,1/21/96,3.6,2.2,0.51,9.83,96,312030,2.2,2.9,0.2,11.1,96
priscu_b1,1/22/96,2.8,2.2,0,6.29,75,188532,1.4,1.1,0.3,5.3,75
priscu_b1,1/23/96,2.5,1.4,0.51,5.49,23,50967,3.7,1,1.8,5.6,23
priscu_b1,1/24/96,6.4,15,0,73.37,76,439488,0.8,0.5,0.2,2.5,76
priscu_b1,1/25/96,10,5.1,1.44,17.98,43,385209,7.1,3.6,0.3,10.9,43
priscu_b1,1/26/96,10.5,6.7,2.21,31.55,96,909054,2.8,2.9,0.2,8.3,96
priscu_b1,1/27/96,5.1,4.1,1.44,25.09,96,440838,2.4,2.9,0.2,8,96
priscu_b1,1/28/96,4.5,3.7,1.25,14.5,96,390321,2.2,2.4,0.2,7.4,96
priscu_b1,1/29/96,6.1,3.2,1.44,19.85,96,523494,0.8,1,0.2,3.7,96
priscu_b1,1/30/96,4.1,3.3,0.2,15.63,96,358002,1.1,1.3,0.2,4.6,96
priscu_b1,1/31/96,9.1,8.8,0,46.92,80,653472,3,2.7,0.3,8.5,80
priscu_b1,2/1/96,6.3,4.7,1.25,20.47,96,541899,2.7,2.6,0.2,7.9,96
priscu_b1,2/2/96,9.3,9.6,1.02,32.28,96,803034,3.7,3.4,0.2,9.2,96
priscu_b1,2/3/96,19.9,7.9,4.39,33.05,96,1717020,3.4,3.2,0.1,8.7,96
priscu_b1,2/4/96,17.5,8.2,3.37,30.07,96,1508094,2.5,2.7,0.2,9,96
priscu_b1,2/5/96,7.1,5.3,1.25,21.1,96,614430,2,1.7,0.2,4.8,96
priscu_b1,2/6/96,6.6,5.3,0.31,17.39,96,568701,2.6,2.7,0.3,8.5,96
priscu_b1,2/7/96,11.5,7.2,0.82,25.77,96,991980,2.5,2.8,0.2,8.2,96
priscu_b1,2/8/96,7.9,9.4,0.51,33.05,96,678393,0.5,0.4,0.2,2,96
priscu_b1,2/9/96,3.1,3.4,0.2,11.84,96,265581,1,1.1,0.2,3.3,96
priscu_b1,2/10/96,4.2,4.2,0.11,17.98,96,360198,0.4,0.3,0.2,1.3,96
priscu_b1,2/11/96,5.4,2.2,2.21,11.33,96,469989,0.4,0.3,0.2,1,96
priscu_b1,2/12/96,5,7,0,21.75,68,306288,0.2,0,0.2,0.2,68
priscu_b1,2/13/96,0,,0,0,1,0,0.2,,0.2,0.2,1
priscu_b1,11/23/96,4.8,2.5,1.44,8.78,16,69012,0.3,0.3,0.1,0.8,16
priscu_b1,11/24/96,4,2.5,0,9.2,96,344745,0.8,1.2,0,4.1,96
priscu_b1,11/25/96,2.6,3.1,0.59,20.33,96,225792,0.6,0.9,0.1,3.1,96
priscu_b1,11/26/96,2.2,3.4,0.59,18.63,90,180009,0.2,0.4,0.1,1.7,96
priscu_b1,11/27/96,2.8,3.8,0,14.33,90,230238,0.1,0,0,0.1,96
priscu_b1,11/28/96,0,0,0,0,37,0,0,0,0,0,39
priscu_b1,12/3/96,0.6,1.2,0,3.82,42,22293,2.3,1.7,0.8,7.1,42
priscu_b1,12/4/96,1.3,1,0.11,6.09,96,110502,1.1,1.6,0,5.1,96
priscu_b1,12/5/96,6.8,6.6,0.03,35.96,93,565218,2,3,0,8.4,96
priscu_b1,12/6/96,3.2,2.4,0.74,12.37,96,272646,1.4,1.6,0.1,5,96
priscu_b1,12/7/96,1.3,1.9,0,6.43,96,116190,1.7,2.1,0,7.7,96
priscu_b1,12/8/96,3,2.6,0.45,9.63,96,260199,3.5,3.4,0,9.6,96
priscu_b1,12/9/96,10.1,7.6,1.84,22.14,96,873036,4.2,4,0.2,10.6,96
priscu_b1,12/10/96,10.6,7.6,1.25,24.66,96,912564,4.7,3.8,0.2,9.6,96
priscu_b1,12/11/96,25,18.3,1.64,48.05,96,2159046,4.8,4.1,0.2,11.1,96
priscu_b1,12/12/96,12.4,6,3.03,38.26,96,1069884,1.1,1,0.2,3.1,96
priscu_b1,12/13/96,5.5,2.5,2.07,13.34,96,479061,1.9,1.8,0.2,5.2,96
priscu_b1,12/14/96,34.2,27.9,4.45,75.41,96,2955672,4.7,3.8,0.2,11.8,96
priscu_b1,12/15/96,19.4,7.8,5.75,35.2,96,1675332,3.6,3,0.6,12.7,96
priscu_b1,12/16/96,39,23.4,5.41,75.41,96,3371499,4.8,3.7,0.3,10.2,96
priscu_b1,12/17/96,21.5,8.6,7.16,49.78,96,1860480,2.3,1.6,0.2,4.9,96
priscu_b1,12/18/96,6.7,6.2,1.44,24.66,96,580491,2,2,0,6.9,96
priscu_b1,12/19/96,2.7,1.5,1.08,8.78,96,232830,3.4,2.9,0.2,8.6,96
priscu_b1,12/20/96,6.2,4,1.08,14.84,96,538722,2.4,2.3,0.2,7.1,96
priscu_b1,12/21/96,3.5,2.1,1.25,9.2,96,300078,2,1.6,0.3,5.4,96
priscu_b1,12/22/96,2.7,2.1,0.31,14.84,92,225180,0.8,0.6,0.2,2.7,96
priscu_b1,12/23/96,8.2,6.1,0.11,38.26,96,707895,4.5,3.9,0.3,10.9,96
priscu_b1,12/24/96,27.9,19.3,3.03,69.35,96,2408391,5.7,4,0.2,11.1,96
priscu_b1,12/25/96,82.4,30.1,18.07,117.37,96,7123401,5.5,3.5,0.2,10.8,96
priscu_b1,12/26/96,47.4,18.7,22.77,102.93,96,4093290,3.7,2.8,0.2,9.7,96
priscu_b1,12/27/96,18.2,7,7.56,43.04,96,1570104,2.6,1.9,0.4,6.1,96
priscu_b1,12/28/96,9.7,2.3,6.09,18.63,96,838764,2,0.9,0.5,3.7,96
priscu_b1,12/29/96,12,5.9,5.75,30.81,96,1033164,3.8,3.3,0.3,10.2,96
priscu_b1,12/30/96,13.2,5.8,3.03,29.39,96,1140273,3.8,2.6,0.3,8.1,96
priscu_b1,12/31/96,36.3,23.5,6.09,84.89,96,3138318,4.5,3.4,0.2,11.5,96
priscu_b1,1/1/97,33.9,19.5,6.8,60.63,96,2927484,5.3,3.6,0.8,10.9,96
priscu_b1,1/2/97,22.3,8.4,10.08,47.2,96,1928115,4,2,1.5,9.2,96
priscu_b1,1/3/97,12.9,5.2,5.75,32.96,96,1112382,3.4,2.5,0.5,6.7,96
priscu_b1,1/4/97,57.5,33.2,10.51,100.58,96,4968252,5.4,3.8,0.2,11,96
priscu_b1,1/5/97,45.6,23.4,8.38,122.36,96,3939840,3.8,3.3,0.2,8.8,96
priscu_b1,1/6/97,53.7,23.9,10.51,87.07,96,4637196,4,3.2,0.2,9.1,96
priscu_b1,1/7/97,46.6,24.1,8.38,87.07,96,4026285,3.5,3.2,0,8.9,96
priscu_b1,1/8/97,8.3,6.7,1.84,36.7,96,719172,0.4,0.2,0.3,1.1,96
priscu_b1,1/9/97,7.2,8,0.59,26.65,66,424737,0.3,0,0.2,0.3,96
priscu_b1,1/10/97,2.9,2.5,0.45,8.38,78,204930,0.6,0.6,0.2,2.2,96
priscu_b1,1/11/97,4.2,2.7,0.74,9.63,96,362160,1.7,1.4,0.3,5.9,96
priscu_b1,1/12/97,0.8,0.5,0.11,1.84,96,67320,0.4,0.1,0.2,0.8,96
priscu_b1,1/13/97,0.7,0.3,0.31,1.44,84,53154,1.2,1.3,0.2,3.6,96
priscu_b1,1/14/97,1.6,2,0,6.8,96,140814,1.9,1.5,0.3,4.4,96
priscu_b1,1/15/97,2.5,3.1,0,11.41,96,218529,2.5,1.5,0.5,6.8,96
priscu_b1,1/16/97,9.7,8.6,0.91,27.33,96,835866,3.2,2.8,0,8,96
priscu_b1,1/17/97,8.4,6.8,0.91,20.93,96,728982,2.6,2.5,0.2,6.8,96
priscu_b1,1/18/97,15,13.1,1.84,53.29,96,1292787,3.3,2.9,0.2,7.9,96
priscu_b1,1/19/97,3.1,1,1.64,8.38,96,267021,1.8,1.3,0.5,4.3,96
priscu_b1,1/20/97,1.8,1.2,0.59,4.45,96,154755,2.6,1.8,0.5,5.6,96
priscu_b1,1/21/97,1,0.7,0.2,2.78,96,89739,2.6,2.1,0.7,7.5,96
priscu_b1,1/22/97,0.8,0.3,0.11,1.64,96,64899,2.3,1.2,0.9,4.3,96
priscu_b1,1/23/97,0.8,0.5,0.2,1.84,96,66924,2.2,1.5,0.6,5.4,96
priscu_b1,1/24/97,0.6,0.2,0.2,1.44,75,40023,1.9,1.4,0.6,4.1,75
priscu_b1,11/13/97,10.6,8.7,0,22.13,95,904464,0,0.1,-0.41,0.05,95
priscu_b1,11/14/97,7.5,7.3,0,22.76,96,645876,-0.1,0.3,-1.21,0.05,96
priscu_b1,11/15/97,13.6,6.2,3.28,23.39,96,1171773,0,0,0,0.05,96
priscu_b1,11/16/97,19.1,3.7,13.83,30.09,96,1649880,0,0,0,0.05,96
priscu_b1,11/17/97,18.6,8.5,3.54,36.7,96,1609137,0,0,0,0.05,96
priscu_b1,11/18/97,12.3,6.9,1.08,26.65,96,1059588,0,0,0,0.05,96
priscu_b1,11/19/97,21.9,8.8,7.56,36.7,96,1890612,0,0,0,0.05,96
priscu_b1,11/20/97,22.9,4.4,15.36,34.44,96,1979532,0,0,0,0.05,96
priscu_b1,11/21/97,41,28.2,0,99.41,95,3503034,2.4,3.3,0,9.28,96
priscu_b1,11/22/97,48.7,24.1,6.79,85.97,96,4211424,4.1,3.1,0.17,8.58,96
priscu_b1,11/23/97,34.8,14.7,3.02,58.75,95,2978667,2.9,2.9,0,7.67,95
priscu_b1,11/24/97,10.7,5.9,1.85,25.98,96,921924,2.3,2.3,0.19,6.83,96
priscu_b1,11/25/97,6.2,6.9,0.59,22.76,96,534609,3.5,2.9,0.29,8.83,96
priscu_b1,11/26/97,39.9,31.5,2.53,104.07,96,3447576,4.2,3.8,0.18,9.56,96
priscu_b1,11/27/97,49,26.3,4.43,99.41,96,4234653,2.9,2.9,0.18,7.46,96
priscu_b1,11/28/97,22.3,19.6,2.07,72.33,96,1923399,1.5,2,0.18,7.15,96
priscu_b1,11/29/97,2.6,1.1,1.25,5.74,96,224496,0.2,0,0.19,0.36,96
priscu_b1,11/30/97,5.1,3,1.85,11.42,96,439947,0.3,0.1,0.19,0.71,96
priscu_b1,12/1/97,6.4,5.5,1.64,20.92,96,552636,1.3,1.6,0.18,7.38,96
priscu_b1,12/2/97,3.9,4.1,0.31,32.23,96,338814,2.6,2.6,0.19,9.19,96
priscu_b1,12/3/97,1,0.6,0.11,3.83,71,64458,1.1,1.5,0.2,4.5,72
priscu_b1,12/4/97,3.4,8.6,0.11,48.05,95,287622,0.9,1.1,0.19,4.43,96
priscu_b1,12/5/97,0.9,1,0.11,4.13,96,76248,0.7,0.6,0.21,2.56,96
priscu_b1,12/6/97,6.1,12,0,45.51,71,387702,0.3,0.2,0.17,0.91,71
priscu_b1,12/7/97,42.5,11.2,26.65,67.35,96,3670533,0.9,0.9,0.17,3.51,96
priscu_b1,12/8/97,36.8,6.4,26.65,54.19,96,3183651,0.2,0,0.17,0.29,96
priscu_b1,12/9/97,42.6,19.9,18.62,75.39,96,3677796,0.2,0,0.16,0.25,96
priscu_b1,12/10/97,33.7,13.7,11.42,64.43,96,2910852,0.1,0.1,0,0.18,96
priscu_b1,12/11/97,25.6,4.3,17.5,34.44,96,2207871,0,0,0,0.05,96
priscu_b1,12/12/97,32.7,14.7,11.42,56,96,2826027,0,0,0,0.05,96
priscu_b1,12/13/97,50.1,25.4,23.39,118.58,96,4331574,0,0,0,0.05,96
priscu_b1,12/14/97,42.5,10,25.98,65.4,96,3669552,0,0,0,0.05,96
priscu_b1,12/15/97,28.1,8.2,16.96,40.61,96,2429019,0,0,0,0.05,96
priscu_b1,12/16/97,37.1,26.1,0,78.51,96,3203919,0,0,0,0.05,96
priscu_b1,12/17/97,4.2,2.7,1.85,13.33,96,366444,2.2,2.6,0,8.16,96
priscu_b1,12/18/97,7.7,7.2,0,26.65,96,664254,0.7,0.6,0,2.15,96
priscu_b1,12/19/97,10.8,3.1,5.74,18.06,96,930339,2.3,2.8,0.22,8.26,96
priscu_b1,12/20/97,9,3.3,4.75,22.13,96,775197,0.9,0.8,0.18,2.4,96
priscu_b1,12/21/97,10.3,3.6,4.13,15.89,96,892215,2.8,2.9,0.27,8.59,96
priscu_b1,12/22/97,9.3,6.7,2.53,35.18,96,804141,3.4,2.7,0.21,7.61,96
priscu_b1,12/23/97,7.7,5.2,1.08,18.06,96,668574,3.7,3.3,0.23,10.33,96
priscu_b1,12/24/97,29.1,26.5,0,71.32,96,2511612,3.2,2.6,0.22,8.67,96
priscu_b1,12/25/97,52.4,19.7,24.67,126.12,96,4530123,6.4,3.5,1.38,11.57,96
priscu_b1,12/26/97,43,18,5.07,78.51,96,3710988,4.8,3.2,0.23,10.46,96
priscu_b1,12/27/97,56.3,14.9,15.36,89.26,96,4865337,5.7,3.6,0.21,10.34,96
priscu_b1,12/28/97,33.4,8.1,20.92,52.41,96,2888685,5.5,3.3,1.48,10.27,96
priscu_b1,12/29/97,31.2,11.2,15.89,58.75,96,2694663,3.6,1.9,1.51,7.61,96
priscu_b1,12/30/97,54.9,18.2,19.76,81.67,40,1976211,7.6,1.3,3.07,9.63,40
priscu_b1,12/31/97,6.1,6.7,0.03,32.96,96,528786,5,3.1,0.19,10.02,96
priscu_b1,1/1/98,4,3.2,0.45,15.89,96,347094,0.7,0.6,0.23,2.75,96
priscu_b1,1/2/98,15.7,12.9,2.07,42.22,96,1359441,2.3,3,0,8.38,96
priscu_b1,1/3/98,9.8,5.5,2.07,30.79,96,847611,6.1,4.1,0.75,12.91,96
priscu_b1,1/4/98,3.7,2.2,1.64,14.33,96,318258,1.7,0.9,0.98,5.14,96
priscu_b1,1/5/98,6.5,5.5,0.31,19.18,96,564192,2.3,1.8,0.46,5.61,96
priscu_b1,1/6/98,9.6,9,0.31,32.96,96,827388,4.4,2.7,0.74,9.62,96
priscu_b1,1/7/98,4.6,5.2,0.11,21.52,96,401013,5.2,2.8,1.06,10.63,96
priscu_b1,1/8/98,4,4.4,0.11,15.89,96,344421,3.3,1.7,1.25,6.14,96
priscu_b1,1/9/98,2.1,2.7,0,13.83,96,179118,3.6,2.4,0.75,9.52,96
priscu_b1,1/10/98,4.1,12,0,63.47,90,332523,2.6,1.6,0.45,4.75,90
priscu_b1,1/11/98,7.5,7.2,0,20.92,96,645930,1.8,1,0.52,3.85,96
priscu_b1,1/12/98,6.5,5.9,0,17.5,92,535347,2.8,3,0.29,8.98,92
priscu_b1,1/13/98,13.6,6.2,4.13,26.65,96,1171179,3.8,2.9,0,9.03,96
priscu_b1,1/14/98,6.7,5,1.08,20.34,96,583101,4.4,3.5,0.39,10.69,96
priscu_b1,1/15/98,5,4,1.44,22.13,96,432513,3.6,3,0.25,10.94,96
priscu_b1,1/16/98,13.5,7.4,1.44,27.32,96,1169055,2.5,2.6,0.23,7.1,96
priscu_b1,1/17/98,3.5,1.6,0.59,10.96,96,301950,3.7,3.7,0.31,10.02,96
priscu_b1,1/18/98,0.9,1,0,4.43,96,76878,2.3,2.1,0,7.32,96
priscu_b1,1/19/98,2.8,5.1,0,24.03,96,238410,2,2.5,0.31,7.35,96
priscu_b1,1/20/98,1.2,3.6,0,16.42,96,103284,3.8,3.1,0.35,9.75,96
priscu_b1,1/21/98,3,7.4,0,43.03,91,247905,2.6,2.5,0.22,7.8,92
priscu_b1,1/22/98,4.2,15.8,0,98.26,72,274356,1.8,2.1,0.31,6.52,72
priscu_b1,1/23/98,11,9.1,0,27.32,61,606627,2.8,1.6,0.43,5.4,61
priscu_b1,1/24/98,7.8,4.5,1.64,18.06,96,671193,1.5,1.4,0,4.62,96
priscu_b1,1/25/98,4.3,4.6,0.74,19.18,96,370647,3.3,3.6,0.15,9.27,96
priscu_b1,1/26/98,6.9,4.2,0.59,19.76,96,597825,1.8,1.7,0.19,4.97,96
priscu_b1,1/27/98,8.5,4.9,0.74,25.98,95,724644,0.3,0.1,0.23,0.45,95
priscu_b1,1/28/98,4.5,2.2,0,10.07,48,193734,0.3,0,0.23,0.37,48
priscu_b1,1/29/98,6.1,15.9,0,82.74,89,490707,0.3,0.1,0.18,0.47,91
priscu_b1,1/30/98,0.3,1.1,0,10.07,93,24480,0.3,0.1,0.2,0.65,96
priscu_b1,1/31/98,14.2,34.7,0.11,119.82,64,816687,0.4,0.3,0.17,1.36,71
priscu_b1,2/2/98,4.4,17.2,0.2,105.25,45,179892,0.2,0,0.21,0.27,45
priscu_b1,2/3/98,0.4,0.1,0.31,0.45,96,33084,0.2,0,0.17,0.25,96
priscu_b1,2/4/98,0.3,0.2,0.11,0.45,96,23940,0.1,0.1,-0.03,0.25,96
priscu_b1,2/5/98,0.1,0,0,0.11,16,1242,0.2,0,0.13,0.17,16
priscu_b1,12/4/98,0.8,1.1,0,2.19,7,5238,-0.4,0.1,-0.42,-0.3,7
priscu_b1,12/5/98,17.8,15.7,0,50.54,96,1541538,3.2,3.2,-0.32,7.71,96
priscu_b1,12/6/98,30.8,21.7,3.38,92.59,96,2662227,3.3,3.1,0.19,8.12,96
priscu_b1,12/7/98,22.5,11.2,4.04,47.78,96,1943532,3,3.3,0.14,9.98,96
priscu_b1,12/8/98,5.9,4,0.5,17.38,96,506007,1,0.9,0.18,3.29,96
priscu_b1,12/9/98,3.2,3.2,0,11.31,96,276840,2.6,2.5,0.18,6.88,96
priscu_b1,12/10/98,3.9,3.1,0.11,14.5,96,334395,2.4,2.6,0.17,7.84,96
priscu_b1,12/11/98,3.6,2.5,0,9.83,96,307413,1.8,2.2,0.19,7.01,96
priscu_b1,12/12/98,2,2.9,0,15.06,96,172143,2.1,2.3,0.21,7.34,96
priscu_b1,12/13/98,3.2,2.3,0,13.4,96,278190,1.8,1.9,0.19,6.78,96
priscu_b1,12/14/98,3.3,2.6,0.65,17.38,96,288747,1.6,1.6,0.19,4.91,96
priscu_b1,12/15/98,0.2,0.8,0,5.88,96,15921,0.4,0.6,-0.31,2.8,96
priscu_b1,12/16/98,0.2,0.4,0,1.44,96,18081,0.4,0.3,0.02,1.31,96
priscu_b1,12/17/98,2.4,5.4,0,25.08,96,210546,0.2,0.4,-0.19,1.34,96
priscu_b1,12/18/98,7.2,8.8,0,25.08,96,625023,3,4.1,-0.16,10.51,96
priscu_b1,12/19/98,9.2,7.9,0.11,25.77,96,797202,3,2.7,0.17,7.46,96
priscu_b1,12/20/98,12.4,11.4,0.02,32.28,96,1070226,2.8,2.6,0.12,7.54,96
priscu_b1,12/21/98,12.6,13.2,1.01,51.52,96,1084644,4.2,4,0.13,10.32,96